Preview of NWS' New Version of Forecast
This preview is not operational and should not be used for support decisions.

Regional Weather Roundup (RWR)

Issued by Gray - Portland, ME (GYX)

                            
000
ASUS41 KGYX 171710
RWRGYX
WEATHER ROUNDUP FOR MAINE AND NEW HAMPSHIRE
NATIONAL WEATHER SERVICE GRAY ME
1200 PM EST THU JAN 17 2019

MEZ002-005-006-010-012-015-018-020-021-024-026-027-029-171800-
MAINE
  
CITY           SKY/WX    TMP DP  RH WIND       PRES   REMARKS
PORTLAND       FAIR      18  -1  43 NW6       30.37F                  
SANFORD        FAIR      21  -5  31 W10       30.36F WCI  10          
BAR HARBOR     FAIR      13  -8  39 NW10      30.33  WCI   0          
WISCASSET      FAIR      17 -10  29 MISG      30.37F                  
ROCKLAND       FAIR      15  -5  40 NW9       30.34F                  
FRYEBURG       FAIR      18 -13  24 VRB3      30.32F                  
LEWISTONAUBURN FAIR      15  -8  35 N13       30.34F WCI   1          
AUGUSTA        FAIR      13  -9  37 NW9       30.35F                  
WATERVILLE     FAIR      11  -7  44 MISG      30.32F                  
BANGOR         FAIR      11  -7  44 NW8       30.34F                  
GREENVILLE       N/A      2 -15  45 NW18G24   30.18F WCI -19          
MILLINOCKET    FAIR       4 -12  48 NW16      30.31F WCI -15          
HOULTON        FAIR       1 -13  51 NW12      30.27F WCI -16          
PRESQUE ISLE   FLURRIES   1 -12  54 W13       30.29F WCI -17          
FRENCHVILLE    FAIR      -4 -17  53 NW8       30.20F                  
CARIBOU        FAIR       0 -15  49 VRB7      30.26F                  
$$

NHZ002-005-008-009-011-012-014-171800-
NEW HAMPSHIRE
  
CITY           SKY/WX    TMP DP  RH WIND       PRES   REMARKS
PORTSMOUTH     MOSUNNY   22 -14  19 W10       30.36F WCI  11          
ROCHESTER      FAIR      20 -10  26 NW9       30.34F                  
NASHUA         FAIR      22  -2  35 N3        30.37F                  
MANCHESTER     FAIR      20  -7  30 NW8       30.36F                  
CONCORD        FAIR      17  -1  45 NW8       30.37F                  
LACONIA        FAIR      14  -8  37 SW5       30.35F                  
PLYMOUTH       FAIR      14  -9  35 W7        30.37F                  
BERLIN         FAIR       9 -10  42 VRB5      30.30F                  
WHITEFIELD     FAIR       8  -8  48 CALM      30.34F                  
JAFFREY        FAIR      20  -5  33 CALM      30.30F                  
KEENE          FAIR      19  -4  36 N6        30.37F                  
LEBANON        FAIR      12  -3  51 CALM      30.37F                  
MT WASHINGTON  MOSUNNY   -9 -22  54 NW43        N/A  WCI -43          
$$

VTZ005-007-008-171800-
VERMONT
  
CITY           SKY/WX    TMP DP  RH WIND       PRES   REMARKS
ST JOHNSBURY     N/A      8  -7  50 MISG      30.36F                  
MONTPELIER     FAIR       6  -3  66 NE3       30.36F                  
BURLINGTON     FAIR       9  -3  58 VRB6      30.41F                  
$$

MAZ007-012-024-CTZ003-RIZ002-NYZ038-NYZ072-171800-
SOUTHERN NEW ENGLAND AND NY
  
CITY           SKY/WX    TMP DP  RH WIND       PRES   REMARKS
BOSTON         FAIR      26  -8  22 NW8       30.38F                  
WORCESTER      FAIR      21  -6  30 VRB7      30.30F                  
NANTUCKET      FAIR      29  10  45 N15       30.37F WCI  18          
PROVIDENCE     PTSUNNY   27  -2  28 NE5       30.39F                  
HARTFORD       PTSUNNY   26  -7  23 N5        30.38F                  
ALBANY         PTSUNNY   20  -3  36 CALM      30.42F                  
NEW YORK CITY  PTSUNNY   29   9  43 NE8       30.40F                  
$$

ANZ081-ANZ082-ANZ150-NHZ014-MEZ023>029-171800-
COASTAL MARINE OBSERVATIONS
  
STATION/POSITION TIME  TEMP    WIND        PRES    WAVE
                       AIR SEA DIR/SP/G            HT/PER
                 (UTC) (F)     (DEG/KT/KT) (MB)    (FT/S)
MOUNT DESERT ROC 1700   15     290/ 17/ 21 1026.7F
MATINICUS ROCK   1600   14     330/ 12/ 16 1027.9R
ISLE OF SHOALS   1600   18     280/  9/ 11 1028.9F
JEFFREYS LEDGE   1608      44                N/A     3/ 4
CASHES LEDGE BUO 1650   24 40              1028.0F   4/ 5
$$

.............KEY..............
   WCI - WIND CHILL
   TC  - TEMPERATURE IN CELSIUS
   VSB - VISIBILITY IN MILES
   HX  - HEAT INDEX
   FAIR- INDICATES FEW OR NO CLOUDS BELOW 12,000 FT, WITH NO 
         SIGNIFICANT WEATHER AND/OR OBSTRUCTIONS TO VISIBILITY.